TimeEST,TemperatureF,Dew PointF,Humidity,Sea Level PressureIn,VisibilityMPH,Wind Direction,Wind SpeedMPH,Gust SpeedMPH,PrecipitationIn,Events,Conditions,WindDirDegrees,DateUTC
12:53 AM,59.0,52.0,78,30.41,10.0,NW,5.8,-,N/A,,Clear,320,2013-01-10 05:53:00
1:53 AM,54.0,50.0,86,30.41,10.0,NNW,3.5,-,N/A,,Clear,340,2013-01-10 06:53:00
2:53 AM,55.0,51.1,86,30.40,10.0,Calm,Calm,-,N/A,,Clear,0,2013-01-10 07:53:00
3:53 AM,53.1,50.0,89,30.40,10.0,Calm,Calm,-,N/A,,Clear,0,2013-01-10 08:53:00
4:53 AM,51.1,48.9,92,30.40,10.0,North,3.5,-,N/A,,Clear,10,2013-01-10 09:53:00
5:53 AM,50.0,48.9,96,30.42,10.0,Calm,Calm,-,N/A,,Clear,0,2013-01-10 10:53:00
6:53 AM,48.9,46.9,93,30.45,9.0,NNE,5.8,-,N/A,,Clear,30,2013-01-10 11:53:00
7:53 AM,50.0,48.0,93,30.48,6.0,NNE,4.6,-,N/A,,Clear,20,2013-01-10 12:53:00
8:53 AM,53.1,50.0,89,30.50,6.0,NNE,6.9,-,N/A,,Clear,30,2013-01-10 13:53:00
9:53 AM,61.0,46.9,60,30.50,10.0,NE,10.4,-,N/A,,Clear,40,2013-01-10 14:53:00
10:53 AM,64.0,42.1,45,30.48,10.0,NE,9.2,-,N/A,,Clear,40,2013-01-10 15:53:00
11:53 AM,66.0,43.0,43,30.45,10.0,NNE,12.7,16.1,N/A,,Clear,30,2013-01-10 16:53:00
12:53 PM,66.0,45.0,47,30.43,10.0,NE,6.9,-,N/A,,Clear,50,2013-01-10 17:53:00
1:53 PM,66.0,46.9,50,30.41,10.0,ENE,8.1,-,N/A,,Clear,60,2013-01-10 18:53:00
2:53 PM,68.0,48.0,49,30.42,10.0,East,10.4,-,N/A,,Clear,100,2013-01-10 19:53:00
3:53 PM,66.0,48.0,52,30.41,10.0,ENE,4.6,-,N/A,,Clear,70,2013-01-10 20:53:00
4:53 PM,64.0,48.9,58,30.42,10.0,ENE,4.6,-,N/A,,Clear,70,2013-01-10 21:53:00
5:53 PM,61.0,48.9,64,30.43,10.0,NE,4.6,-,N/A,,Clear,50,2013-01-10 22:53:00
6:53 PM,57.0,48.0,72,30.43,10.0,NE,4.6,-,N/A,,Clear,50,2013-01-10 23:53:00
7:53 PM,55.9,46.0,69,30.43,10.0,ENE,4.6,-,N/A,,Clear,70,2013-01-11 00:53:00
8:53 PM,54.0,44.1,69,30.43,10.0,ENE,4.6,-,N/A,,Scattered Clouds,70,2013-01-11 01:53:00
9:53 PM,54.0,42.1,64,30.42,10.0,East,3.5,-,N/A,,Overcast,80,2013-01-11 02:53:00
10:53 PM,54.0,39.9,59,30.41,10.0,East,8.1,-,N/A,,Overcast,100,2013-01-11 03:53:00
11:45 PM,53.6,39.2,58,30.42,10.0,Calm,Calm,-,N/A,,Overcast,0,2013-01-11 04:45:00
11:53 PM,54.0,39.9,59,30.41,10.0,East,4.6,-,N/A,,Overcast,90,2013-01-11 04:53:00